EW4363 Weather Reports


Display with metric or nautical units.
time (UTC)temp
F
wind
direction
speed
MPH
gust
MPH
rain 1hr
in
rain 24hr
in
rain mn
in
humidity
%
barometer
mb
20260507040303 51 293 0.0 1.0 0.00 0.00 0.00 87 1012.6
20260507035804 51 293 0.0 1.0 0.00 0.00 0.00 87 1012.6
20260507035306 51 269 0.0 3.0 0.00 0.00 0.00 87 1012.5
20260507034803 51 260 1.0 3.0 0.00 0.00 0.00 88 1012.5
20260507034304 51 268 0.0 3.0 0.00 0.00 0.00 88 1012.5
20260507033805 51 279 0.0 0.0 0.00 0.00 0.00 89 1012.6
20260507033304 51 316 0.0 1.0 0.00 0.00 0.00 90 1012.6
20260507032804 51 326 0.0 1.0 0.00 0.00 0.00 90 1012.6
20260507031804 50 326 0.0 0.0 0.00 0.00 0.00 90 1012.7
20260507031304 50 326 0.0 0.0 0.00 0.00 0.00 90 1012.7
20260507030804 50 326 0.0 0.0 0.00 0.00 0.00 89 1012.7
20260507025804 50 325 0.0 2.0 0.00 0.00 0.00 88 1012.7
20260507025306 51 325 0.0 1.0 0.00 0.00 0.00 89 1012.6
20260507024303 51 325 0.0 0.0 0.00 0.01 0.00 90 1012.5
20260507023804 50 325 0.0 0.0 0.00 0.01 0.00 90 1012.5
20260507023303 50 325 0.0 0.0 0.00 0.01 0.00 89 1012.5
20260507022804 50 325 0.0 0.0 0.00 0.01 0.00 88 1012.4
20260507022306 51 325 0.0 1.0 0.00 0.01 0.00 88 1012.4
20260507021804 51 325 0.0 1.0 0.00 0.01 0.00 88 1012.5
20260507021304 51 324 1.0 2.0 0.00 0.01 0.00 88 1012.4
20260507020804 52 281 0.0 0.0 0.00 0.01 0.00 88 1012.4
20260507020304 52 281 0.0 1.0 0.00 0.01 0.00 88 1012.4
20260507015804 52 281 0.0 1.0 0.00 0.01 0.00 88 1012.5
20260507014804 51 281 0.0 0.0 0.00 0.01 0.00 88 1012.6
20260507014303 51 281 0.0 1.0 0.00 0.01 0.00 88 1012.7
20260507013804 51 281 0.0 1.0 0.00 0.01 0.00 88 1012.7
20260507013304 52 281 0.0 0.0 0.00 0.01 0.00 87 1012.7
20260507012804 52 281 0.0 1.0 0.00 0.01 0.00 86 1012.7
20260507012306 52 281 0.0 0.0 0.00 0.01 0.00 86 1012.7
20260507011804 52 281 0.0 1.0 0.00 0.01 0.00 87 1012.5
20260507011305 52 0 0.0 0.0 0.00 0.01 0.00 86 1012.5
20260507010804 52 281 0.0 0.0 0.00 0.01 0.00 86 1012.6
20260507010303 52 281 0.0 0.0 0.00 0.01 0.00 86 1012.7
20260507005804 52 281 0.0 0.0 0.00 0.01 0.00 87 1012.7
20260507005306 52 281 0.0 0.0 0.00 0.01 0.00 86 1012.7
20260507004804 52 281 0.0 0.0 0.00 0.01 0.00 86 1012.8
20260507004303 52 281 0.0 0.0 0.00 0.01 0.00 85 1012.9
20260507003804 52 281 0.0 0.0 0.00 0.01 0.00 85 1012.9
20260507003303 53 281 0.0 1.0 0.00 0.01 0.00 85 1012.9
20260507002306 53 281 0.0 1.0 0.00 0.01 0.00 86 1012.9
20260507001804 53 281 0.0 0.0 0.00 0.01 0.00 86 1012.9
20260507000306 53 327 0.0 0.0 0.00 0.01 0.00 85 1013.0
20260506235804 53 327 0.0 0.0 0.00 0.01 0.00 85 1013.0
20260506235306 53 327 0.0 0.0 0.00 0.01 0.00 85 1012.9
20260506234804 53 327 0.0 0.0 0.00 0.01 0.00 85 1012.9
20260506234304 53 327 1.0 2.0 0.00 0.01 0.00 84 1013.0
20260506233804 54 321 0.0 2.0 0.00 0.01 0.00 84 1012.9
20260506233304 54 324 0.0 0.0 0.00 0.01 0.00 84 1012.9
20260506232804 54 324 0.0 0.0 0.00 0.01 0.00 84 1012.9
20260506231804 54 324 0.0 0.0 0.00 0.01 0.00 83 1013.0
20260506231304 54 324 0.0 0.0 0.00 0.01 0.00 83 1012.9
20260506230804 54 324 0.0 0.0 0.00 0.01 0.00 83 1012.9
20260506225805 55 324 0.0 0.0 0.00 0.01 0.00 82 1012.9
20260506225306 55 324 0.0 0.0 0.00 0.01 0.00 82 1012.9
20260506224804 55 324 0.0 0.0 0.00 0.01 0.00 81 1012.9
20260506224304 55 324 0.0 0.0 0.00 0.01 0.00 81 1012.8
20260506223804 56 324 0.0 0.0 0.00 0.01 0.00 80 1012.8
20260506223304 56 324 0.0 0.0 0.00 0.01 0.00 79 1012.8
20260506222804 56 324 0.0 0.0 0.00 0.01 0.00 79 1012.8
20260506222306 56 324 0.0 0.0 0.00 0.01 0.00 79 1012.8
20260506221804 56 324 0.0 0.0 0.00 0.01 0.00 79 1012.8
20260506221304 56 324 0.0 0.0 0.00 0.01 0.00 78 1012.7
20260506220811 57 324 0.0 0.0 0.00 0.01 0.00 78 1012.7
20260506215804 57 324 0.0 0.0 0.00 0.01 0.01 76 1012.7
20260506215306 57 324 0.0 0.0 0.00 0.01 0.01 76 1012.7
20260506214804 57 324 0.0 0.0 0.00 0.01 0.01 75 1012.7
20260506214304 58 324 0.0 0.0 0.00 0.01 0.01 75 1012.7
20260506213804 58 324 0.0 0.0 0.00 0.01 0.01 75 1012.7
20260506213304 58 324 0.0 0.0 0.00 0.01 0.01 74 1012.6
20260506212804 58 324 0.0 0.0 0.00 0.01 0.01 74 1012.6
20260506212306 58 324 0.0 0.0 0.00 0.01 0.01 73 1012.7
20260506211305 59 324 0.0 0.0 0.00 0.01 0.01 73 1012.6
20260506203804 60 323 0.0 0.0 0.00 0.01 0.01 69 1012.2
20260506203304 60 323 0.0 0.0 0.00 0.01 0.01 68 1012.2
20260506201804 61 282 0.0 1.0 0.00 0.01 0.01 67 1011.9
20260506201304 61 282 1.0 3.0 0.00 0.01 0.01 67 1011.9
20260506200804 61 288 0.0 1.0 0.00 0.01 0.01 67 1011.9
20260506200304 61 288 0.0 1.0 0.00 0.01 0.01 67 1011.8
20260506195804 61 289 0.0 1.0 0.00 0.01 0.01 66 1011.7
20260506194804 61 289 0.0 1.0 0.00 0.01 0.01 65 1011.5
20260506194304 62 290 0.0 0.0 0.00 0.01 0.01 64 1011.5
20260506193304 62 288 0.0 1.0 0.00 0.01 0.01 62 1011.2
20260506192804 62 288 0.0 1.0 0.00 0.01 0.01 61 1011.2
20260506192306 62 312 0.0 1.0 0.00 0.01 0.01 60 1011.1
20260506191804 62 326 0.0 3.0 0.00 0.01 0.01 60 1011.0
20260506191304 63 318 1.0 3.0 0.00 0.01 0.01 59 1010.9
20260506190304 63 326 0.0 3.0 0.00 0.01 0.01 59 1010.8
20260506185306 63 325 1.0 3.0 0.00 0.01 0.01 58 1010.6
20260506184804 64 319 1.0 3.0 0.00 0.01 0.01 57 1010.5
20260506184304 64 323 1.0 5.0 0.00 0.01 0.01 57 1010.5
20260506183804 64 326 1.0 3.0 0.00 0.01 0.01 56 1010.3
20260506182306 65 321 3.0 5.0 0.00 0.01 0.01 55 1010.1
20260506181804 66 312 1.0 3.0 0.00 0.01 0.01 55 1010.1
20260506180804 66 327 2.0 5.0 0.00 0.01 0.01 53 1010.0
20260506180304 67 315 3.0 6.0 0.00 0.01 0.01 52 1009.9
20260506175804 68 326 2.0 5.0 0.00 0.01 0.01 51 1009.8
20260506175306 68 322 3.0 5.0 0.00 0.01 0.01 50 1009.8
20260506174305 69 323 2.0 5.0 0.00 0.01 0.01 50 1009.7
20260506173804 69 325 2.0 5.0 0.00 0.01 0.01 50 1009.6
20260506173304 70 323 2.0 6.0 0.00 0.01 0.01 49 1009.6
20260506172804 70 326 2.0 3.0 0.00 0.01 0.01 48 1009.5
20260506171805 69 323 2.0 6.0 0.00 0.01 0.01 49 1009.3
20260506170804 70 298 2.0 5.0 0.00 0.01 0.01 49 1009.4
20260506170305 69 286 1.0 3.0 0.00 0.01 0.01 50 1009.4
20260506165305 68 314 1.0 7.0 0.00 0.02 0.01 51 1009.2
20260506164804 68 321 3.0 7.0 0.00 0.02 0.01 52 1009.2
20260506164305 68 319 3.0 7.0 0.00 0.03 0.01 52 1009.2
20260506163305 69 317 3.0 9.0 0.00 0.04 0.01 51 1009.2
20260506162804 70 318 4.0 8.0 0.00 0.05 0.01 49 1009.1
20260506162307 70 324 2.0 7.0 0.00 0.05 0.01 49 1009.1
20260506161804 70 315 3.0 7.0 0.00 0.06 0.01 49 1009.0
20260506161304 70 321 5.0 9.0 0.00 0.06 0.01 48 1009.0
20260506160804 71 318 3.0 6.0 0.00 0.06 0.01 47 1008.9
20260506160305 72 314 2.0 5.0 0.00 0.07 0.01 45 1008.9
20260506155306 73 321 3.0 7.0 0.00 0.09 0.01 44 1008.8
20260506154304 74 319 2.0 5.0 0.00 0.13 0.01 43 1008.8
20260506153804 74 317 2.0 7.0 0.00 0.13 0.01 42 1008.8
20260506153305 76 312 3.0 7.0 0.00 0.13 0.01 41 1008.8
20260506152804 76 338 1.0 5.0 0.00 0.13 0.01 39 1008.8
20260506152306 76 297 1.0 3.0 0.00 0.13 0.01 40 1008.9
20260506151805 76 323 3.0 8.0 0.00 0.13 0.01 39 1008.9
20260506151305 76 292 2.0 6.0 0.00 0.13 0.01 33 1008.9
20260506145805 75 257 1.0 5.0 0.00 0.13 0.01 33 1009.0
20260506145305 75 303 2.0 6.0 0.00 0.13 0.01 33 1009.0
20260506144804 75 266 3.0 10.0 0.00 0.13 0.01 34 1008.9
20260506144305 74 276 0.0 6.0 0.00 0.13 0.01 34 1009.0
20260506143805 74 284 1.0 6.0 0.00 0.13 0.01 33 1009.1
20260506143305 74 300 3.0 7.0 0.00 0.13 0.01 34 1009.2
20260506142804 74 261 3.0 7.0 0.00 0.13 0.01 35 1009.3
20260506142306 74 330 2.0 6.0 0.00 0.13 0.01 34 1009.3
20260506141804 74 309 3.0 8.0 0.00 0.13 0.01 35 1009.3
20260506141305 73 285 1.0 7.0 0.00 0.13 0.01 36 1009.4
20260506140804 72 307 2.0 6.0 0.00 0.13 0.01 37 1009.5
20260506140305 72 254 3.0 8.0 0.00 0.13 0.01 37 1009.5
20260506135805 73 316 3.0 7.0 0.00 0.13 0.01 37 1009.6
20260506135306 73 317 2.0 3.0 0.00 0.13 0.01 36 1009.5
20260506134805 73 289 2.0 10.0 0.00 0.13 0.01 36 1009.6
20260506133805 72 279 0.0 2.0 0.00 0.13 0.01 38 1009.6
20260506132805 72 285 2.0 6.0 0.00 0.13 0.01 37 1009.8
20260506132307 73 280 2.0 6.0 0.00 0.13 0.01 36 1009.8
20260506131304 74 278 1.0 6.0 0.00 0.13 0.01 37 1010.0
20260506130304 74 260 3.0 10.0 0.00 0.13 0.01 34 1010.0
20260506125804 74 302 2.0 7.0 0.00 0.13 0.01 36 1010.0
20260506125305 74 282 1.0 3.0 0.00 0.13 0.01 36 1010.0
20260506124804 74 306 3.0 7.0 0.00 0.13 0.01 36 1010.1
20260506124304 74 325 3.0 7.0 0.00 0.13 0.01 36 1010.0
20260506123304 74 314 3.0 7.0 0.00 0.13 0.01 39 1010.1
20260506122804 74 325 2.0 3.0 0.00 0.13 0.01 38 1010.1
20260506120304 72 261 3.0 5.0 0.00 0.13 0.01 42 1010.3
20260506115804 72 274 1.0 3.0 0.00 0.13 0.01 41 1010.3
20260506115307 72 299 1.0 6.0 0.00 0.13 0.01 39 1010.3
20260506114804 72 318 1.0 3.0 0.00 0.13 0.01 42 1010.3
20260506114304 72 319 2.0 12.0 0.00 0.13 0.01 43 1010.4
20260506113804 71 274 3.0 9.0 0.00 0.13 0.01 40 1010.4
20260506113305 71 270 4.0 8.0 0.00 0.13 0.01 39 1010.4
20260506112804 71 269 4.0 7.0 0.00 0.13 0.01 39 1010.5
20260506112306 71 290 3.0 9.0 0.00 0.13 0.01 39 1010.5
20260506111305 70 259 1.0 8.0 0.00 0.13 0.01 41 1010.6
20260506110804 70 291 1.0 6.0 0.00 0.13 0.01 41 1010.7
20260506110305 70 258 2.0 8.0 0.00 0.13 0.01 41 1010.8
20260506105804 69 310 2.0 8.0 0.00 0.13 0.01 42 1010.7
20260506105305 69 262 3.0 7.0 0.00 0.13 0.01 42 1010.8
20260506104804 69 265 3.0 10.0 0.00 0.13 0.01 43 1010.9
20260506104304 70 306 1.0 6.0 0.00 0.13 0.01 42 1010.9
20260506103304 69 252 1.0 10.0 0.00 0.13 0.01 43 1011.0
20260506102804 69 321 2.0 5.0 0.00 0.13 0.01 43 1011.1
20260506101804 69 316 2.0 3.0 0.00 0.13 0.01 46 1011.2
20260506101305 69 321 2.0 5.0 0.00 0.13 0.01 51 1011.2
20260506100804 68 312 1.0 2.0 0.00 0.13 0.01 50 1011.2
20260506095804 66 267 1.0 3.0 0.00 0.13 0.01 52 1011.4
20260506094804 65 276 2.0 3.0 0.00 0.13 0.01 54 1011.6
20260506092804 64 313 0.0 2.0 0.00 0.13 0.01 59 1011.6
20260506091304 63 294 1.0 3.0 0.00 0.13 0.01 59 1011.8
20260506090804 63 285 2.0 3.0 0.00 0.13 0.01 59 1011.8
20260506090304 63 276 0.0 2.0 0.00 0.13 0.01 61 1011.8
20260506085804 62 271 2.0 3.0 0.00 0.13 0.01 62 1011.8
20260506085306 62 272 4.0 7.0 0.00 0.13 0.01 62 1011.8
20260506084805 61 280 2.0 6.0 0.00 0.13 0.01 62 1011.8
20260506084304 61 273 2.0 3.0 0.00 0.13 0.01 64 1011.8
20260506083804 61 281 2.0 5.0 0.00 0.13 0.01 64 1011.7
20260506083304 60 281 1.0 5.0 0.00 0.13 0.01 65 1011.7
20260506082805 60 283 3.0 6.0 0.00 0.13 0.01 66 1011.7
20260506082305 60 277 2.0 8.0 0.00 0.13 0.01 67 1011.7
20260506081805 60 271 4.0 7.0 0.00 0.13 0.01 67 1011.7
20260506081305 59 277 2.0 8.0 0.00 0.13 0.01 69 1011.6
20260506080805 59 264 2.0 8.0 0.00 0.13 0.01 68 1011.6
20260506080305 58 274 2.0 6.0 0.00 0.13 0.01 70 1011.5
20260506073305 56 267 2.0 6.0 0.00 0.13 0.01 77 1011.4
20260506072804 55 270 3.0 5.0 0.00 0.13 0.01 78 1011.4
20260506072306 55 274 3.0 6.0 0.00 0.13 0.01 78 1011.4
20260506071804 55 278 3.0 8.0 0.00 0.13 0.01 79 1011.4
20260506071305 54 277 3.0 9.0 0.00 0.13 0.01 80 1011.4
20260506070305 53 272 1.0 7.0 0.00 0.13 0.01 83 1011.5
20260506062306 51 274 2.0 8.0 0.00 0.13 0.01 87 1011.5
20260506061805 51 271 2.0 6.0 0.00 0.13 0.01 87 1011.5
20260506061305 51 271 2.0 6.0 0.00 0.13 0.01 87 1011.5
20260506060805 51 268 2.0 6.0 0.00 0.13 0.01 87 1011.4
20260506060305 51 271 2.0 3.0 0.00 0.13 0.01 88 1011.4
20260506050804 49 277 2.0 5.0 0.00 0.13 0.01 91 1010.9
20260506050305 49 270 0.0 3.0 0.00 0.13 0.01 91 1010.9
20260506044805 49 284 0.0 1.0 0.00 0.13 0.01 91 1010.7
20260506043804 49 279 1.0 3.0 0.00 0.13 0.01 92 1010.7
20260506043304 49 265 1.0 3.0 0.00 0.13 0.01 92 1010.7
20260506042305 49 271 1.0 3.0 0.00 0.13 0.01 92 1010.7
20260506041804 49 284 0.0 1.0 0.00 0.13 0.01 92 1010.6
20260506041304 49 284 0.0 1.0 0.00 0.13 0.01 92 1010.6